Location: Amsterdam
(30.7274°N, 84.4357°W)
Time: 02:37:17
(UTC+00:00)

Transit 2A Rocket - Pass Details

Date: 19 February 2026
Orbit: 583 x 900 km, 66.7° (Epoch: 12 March)

Event Time Altitude Azimuth Distance (km) Brightness Sun altitude
Rises 21:09:55 0° 220° (SW) 3,433 9.5 26.7°
Reaches altitude 10° 21:12:27 10° 226° (SW) 2,526 9.4 26.2°
Maximum altitude 21:18:08 47° 299° (WNW) 1,169 6.6 25.2°
Drops below altitude 10° 21:23:56 10° 12° (NNE) 2,571 7.4 24.1°
Sets 21:26:32 0° 19° (NNE) 3,499 8.0 23.6°
